Time,TemperatureF,DewpointF,PressureIn,WindDirection,WindDirectionDegrees,WindSpeedMPH,WindSpeedGustMPH,Humidity,HourlyPrecipIn,Conditions,Clouds,dailyrainin,SoftwareType,DateUTC
2013-01-06 00:01:00,36.7,35.0,30.27,WNW,297,0.0,0.0,93,0.01,,,0.02,weatherlink.com 1.10,2013-01-06 05:01:00,
2013-01-06 00:17:00,36.5,35.0,30.27,WNW,297,0.0,0.0,93,0.01,,,0.00,weatherlink.com 1.10,2013-01-06 05:17:00,
2013-01-06 00:32:00,36.4,35.0,30.26,WNW,297,0.0,0.0,94,0.01,,,0.00,weatherlink.com 1.10,2013-01-06 05:32:00,
2013-01-06 00:47:00,36.4,35.0,30.27,WNW,297,0.0,0.0,95,0.01,,,0.00,weatherlink.com 1.10,2013-01-06 05:47:00,
2013-01-06 01:02:00,36.3,35.0,30.26,WNW,297,0.0,0.0,95,0.00,,,0.00,weatherlink.com 1.10,2013-01-06 06:02:00,
2013-01-06 01:17:00,36.3,35.0,30.26,West,271,0.0,0.0,95,0.00,,,0.00,weatherlink.com 1.10,2013-01-06 06:17:00,
2013-01-06 01:32:00,35.6,34.0,30.25,West,271,0.0,0.0,93,0.00,,,0.00,weatherlink.com 1.10,2013-01-06 06:32:00,
2013-01-06 01:47:00,35.4,34.0,30.25,West,271,0.0,0.0,94,0.00,,,0.00,weatherlink.com 1.10,2013-01-06 06:47:00,
2013-01-06 02:02:00,35.2,34.0,30.26,West,271,0.0,0.0,94,0.00,,,0.00,weatherlink.com 1.10,2013-01-06 07:02:00,
2013-01-06 02:17:00,34.9,34.0,30.25,West,271,0.0,0.0,95,0.00,,,0.00,weatherlink.com 1.10,2013-01-06 07:17:00,
2013-01-06 02:33:00,34.6,33.0,30.25,West,271,0.0,0.0,95,0.00,,,0.00,weatherlink.com 1.10,2013-01-06 07:33:00,
2013-01-06 02:47:00,34.5,33.0,30.24,West,271,0.0,0.0,95,0.00,,,0.00,weatherlink.com 1.10,2013-01-06 07:47:00,
2013-01-06 03:02:00,34.6,34.0,30.23,West,269,0.0,0.0,96,0.01,,,0.01,weatherlink.com 1.10,2013-01-06 08:02:00,
2013-01-06 03:17:00,34.6,34.0,30.23,West,270,0.0,0.0,96,0.01,,,0.01,weatherlink.com 1.10,2013-01-06 08:17:00,
2013-01-06 03:32:00,34.5,34.0,30.22,West,270,0.0,0.0,96,0.01,,,0.01,weatherlink.com 1.10,2013-01-06 08:32:00,
2013-01-06 03:47:00,34.5,34.0,30.21,West,270,0.0,0.0,96,0.01,,,0.01,weatherlink.com 1.10,2013-01-06 08:47:00,
2013-01-06 04:02:00,34.4,33.0,30.20,West,270,0.0,0.0,96,0.00,,,0.01,weatherlink.com 1.10,2013-01-06 09:02:00,
2013-01-06 04:17:00,34.3,33.0,30.20,West,269,0.0,0.0,96,0.00,,,0.01,weatherlink.com 1.10,2013-01-06 09:17:00,
2013-01-06 04:32:00,34.4,34.0,30.19,West,270,0.0,0.0,97,0.00,,,0.01,weatherlink.com 1.10,2013-01-06 09:32:00,
2013-01-06 04:47:00,34.5,34.0,30.19,West,269,0.0,0.0,96,0.00,,,0.01,weatherlink.com 1.10,2013-01-06 09:47:00,
2013-01-06 05:02:00,34.5,34.0,30.18,West,270,0.0,0.0,97,0.00,,,0.01,weatherlink.com 1.10,2013-01-06 10:02:00,
2013-01-06 05:17:00,34.6,34.0,30.18,West,269,0.0,0.0,97,0.00,,,0.01,weatherlink.com 1.10,2013-01-06 10:17:00,
2013-01-06 05:32:00,34.6,34.0,30.18,West,269,0.0,0.0,97,0.00,,,0.01,weatherlink.com 1.10,2013-01-06 10:32:00,
2013-01-06 05:47:00,34.6,34.0,30.18,West,270,0.0,0.0,97,0.00,,,0.01,weatherlink.com 1.10,2013-01-06 10:47:00,
2013-01-06 06:02:00,34.7,34.0,30.18,West,269,0.0,0.0,97,0.00,,,0.01,weatherlink.com 1.10,2013-01-06 11:02:00,
2013-01-06 06:17:00,34.7,34.0,30.19,West,269,0.0,0.0,97,0.00,,,0.01,weatherlink.com 1.10,2013-01-06 11:17:00,
2013-01-06 06:32:00,34.6,34.0,30.20,West,270,0.0,0.0,97,0.01,,,0.02,weatherlink.com 1.10,2013-01-06 11:32:00,
2013-01-06 06:47:00,34.6,34.0,30.19,South,186,0.0,0.0,97,0.01,,,0.02,weatherlink.com 1.10,2013-01-06 11:47:00,
2013-01-06 07:02:00,34.5,34.0,30.19,South,188,0.0,0.0,97,0.01,,,0.02,weatherlink.com 1.10,2013-01-06 12:02:00,
2013-01-06 07:17:00,34.5,34.0,30.20,South,188,0.0,0.0,97,0.01,,,0.02,weatherlink.com 1.10,2013-01-06 12:17:00,
2013-01-06 07:32:00,34.6,34.0,30.21,South,191,0.0,0.0,97,0.00,,,0.02,weatherlink.com 1.10,2013-01-06 12:32:00,
2013-01-06 07:47:00,34.6,34.0,30.21,South,190,0.0,0.0,97,0.00,,,0.02,weatherlink.com 1.10,2013-01-06 12:47:00,
2013-01-06 08:02:00,34.7,34.0,30.20,South,186,0.0,0.0,97,0.00,,,0.02,weatherlink.com 1.10,2013-01-06 13:02:00,
2013-01-06 08:17:00,34.7,34.0,30.20,South,186,0.0,0.0,98,0.00,,,0.02,weatherlink.com 1.10,2013-01-06 13:17:00,
2013-01-06 08:32:00,35.0,35.0,30.20,South,186,0.0,0.0,98,0.00,,,0.02,weatherlink.com 1.10,2013-01-06 13:32:00,
2013-01-06 08:47:00,35.2,35.0,30.21,South,188,0.0,0.0,98,0.00,,,0.02,weatherlink.com 1.10,2013-01-06 13:47:00,
2013-01-06 09:02:00,35.4,35.0,30.21,South,188,0.0,0.0,98,0.00,,,0.02,weatherlink.com 1.10,2013-01-06 14:02:00,
2013-01-06 09:17:00,35.5,35.0,30.20,South,188,0.0,0.0,98,0.00,,,0.02,weatherlink.com 1.10,2013-01-06 14:17:00,
2013-01-06 09:32:00,35.6,35.0,30.20,South,188,0.0,0.0,97,0.00,,,0.02,weatherlink.com 1.10,2013-01-06 14:32:00,
2013-01-06 09:47:00,35.9,35.0,30.20,SE,135,0.0,0.0,97,0.00,,,0.02,weatherlink.com 1.10,2013-01-06 14:47:00,
2013-01-06 10:02:00,36.3,36.0,30.21,SE,130,0.0,0.0,97,0.00,,,0.02,weatherlink.com 1.10,2013-01-06 15:02:00,
2013-01-06 10:17:00,36.7,36.0,30.21,SE,130,0.0,0.0,97,0.00,,,0.02,weatherlink.com 1.10,2013-01-06 15:17:00,
2013-01-06 10:32:00,37.1,36.0,30.22,SSE,156,0.0,0.0,97,0.00,,,0.02,weatherlink.com 1.10,2013-01-06 15:32:00,
2013-01-06 10:47:00,37.3,37.0,30.22,SE,132,0.0,0.0,97,0.00,,,0.02,weatherlink.com 1.10,2013-01-06 15:47:00,
2013-01-06 11:02:00,37.3,36.0,30.21,WSW,240,0.0,0.0,96,0.00,,,0.02,weatherlink.com 1.10,2013-01-06 16:02:00,
2013-01-06 11:17:00,37.3,36.0,30.21,West,267,0.0,1.0,96,0.00,,,0.02,weatherlink.com 1.10,2013-01-06 16:17:00,
2013-01-06 11:33:00,37.4,36.0,30.20,WSW,246,1.0,2.0,95,0.00,,,0.02,weatherlink.com 1.10,2013-01-06 16:33:00,
2013-01-06 11:48:00,37.4,36.0,30.20,WSW,256,0.0,1.0,95,0.00,,,0.02,weatherlink.com 1.10,2013-01-06 16:48:00,
2013-01-06 12:03:00,37.9,36.0,30.19,WSW,253,0.0,0.0,94,0.00,,,0.02,weatherlink.com 1.10,2013-01-06 17:03:00,
2013-01-06 12:18:00,38.9,37.0,30.18,NNW,327,0.0,0.0,92,0.00,,,0.02,weatherlink.com 1.10,2013-01-06 17:18:00,
2013-01-06 12:33:00,39.4,37.0,30.17,West,279,0.0,1.0,89,0.00,,,0.02,weatherlink.com 1.10,2013-01-06 17:33:00,
2013-01-06 12:48:00,39.9,37.0,30.16,WNW,295,0.0,1.0,89,0.00,,,0.02,weatherlink.com 1.10,2013-01-06 17:48:00,
2013-01-06 13:03:00,41.3,38.0,30.15,West,278,1.0,3.0,88,0.00,,,0.02,weatherlink.com 1.10,2013-01-06 18:03:00,
2013-01-06 13:18:00,42.6,38.0,30.14,NNW,343,1.0,2.0,83,0.00,,,0.02,weatherlink.com 1.10,2013-01-06 18:18:00,
2013-01-06 13:33:00,41.7,36.0,30.14,NNE,13,0.0,3.0,81,0.00,,,0.02,weatherlink.com 1.10,2013-01-06 18:33:00,
2013-01-06 13:48:00,41.6,37.0,30.14,WSW,243,0.0,2.0,82,0.00,,,0.02,weatherlink.com 1.10,2013-01-06 18:48:00,
2013-01-06 14:03:00,41.7,36.0,30.13,NW,323,1.0,5.0,81,0.00,,,0.02,weatherlink.com 1.10,2013-01-06 19:03:00,
2013-01-06 14:18:00,40.8,36.0,30.13,NW,326,0.0,2.0,82,0.00,,,0.02,weatherlink.com 1.10,2013-01-06 19:18:00,
2013-01-06 14:33:00,41.4,36.0,30.12,North,358,0.0,3.0,81,0.00,,,0.02,weatherlink.com 1.10,2013-01-06 19:33:00,
2013-01-06 14:48:00,41.5,35.0,30.13,NW,314,1.0,3.0,79,0.00,,,0.02,weatherlink.com 1.10,2013-01-06 19:48:00,
2013-01-06 15:03:00,41.4,35.0,30.13,NW,321,0.0,3.0,78,0.00,,,0.02,weatherlink.com 1.10,2013-01-06 20:03:00,
2013-01-06 15:18:00,41.1,35.0,30.14,NW,315,0.0,5.0,80,0.00,,,0.02,weatherlink.com 1.10,2013-01-06 20:18:00,
2013-01-06 15:33:00,40.3,34.0,30.14,NW,317,0.0,3.0,79,0.00,,,0.02,weatherlink.com 1.10,2013-01-06 20:33:00,
2013-01-06 15:48:00,40.0,34.0,30.14,East,96,1.0,4.0,78,0.00,,,0.02,weatherlink.com 1.10,2013-01-06 20:48:00,
2013-01-06 16:03:00,39.1,33.0,30.14,WNW,288,0.0,2.0,78,0.00,,,0.02,weatherlink.com 1.10,2013-01-06 21:03:00,
2013-01-06 16:18:00,38.6,33.0,30.14,NNW,333,0.0,2.0,80,0.00,,,0.02,weatherlink.com 1.10,2013-01-06 21:18:00,
2013-01-06 16:33:00,38.8,33.0,30.14,NW,319,0.0,4.0,80,0.00,,,0.02,weatherlink.com 1.10,2013-01-06 21:33:00,
2013-01-06 16:48:00,38.5,33.0,30.14,NW,314,0.0,1.0,80,0.00,,,0.02,weatherlink.com 1.10,2013-01-06 21:48:00,
2013-01-06 17:03:00,37.7,33.0,30.14,NW,314,0.0,1.0,82,0.00,,,0.02,weatherlink.com 1.10,2013-01-06 22:03:00,
2013-01-06 17:18:00,36.8,32.0,30.14,NW,314,0.0,0.0,83,0.00,,,0.02,weatherlink.com 1.10,2013-01-06 22:18:00,
2013-01-06 17:33:00,35.7,32.0,30.14,NW,314,0.0,0.0,86,0.00,,,0.02,weatherlink.com 1.10,2013-01-06 22:33:00,
2013-01-06 17:48:00,34.6,31.0,30.15,NW,314,0.0,0.0,88,0.00,,,0.02,weatherlink.com 1.10,2013-01-06 22:48:00,
2013-01-06 18:03:00,33.9,31.0,30.16,NW,314,0.0,0.0,90,0.00,,,0.02,weatherlink.com 1.10,2013-01-06 23:03:00,
2013-01-06 18:18:00,34.8,31.0,30.17,NW,306,0.0,3.0,87,0.00,,,0.02,weatherlink.com 1.10,2013-01-06 23:18:00,
2013-01-06 18:33:00,34.8,32.0,30.19,West,267,0.0,2.0,88,0.00,,,0.02,weatherlink.com 1.10,2013-01-06 23:33:00,
2013-01-06 18:48:00,35.1,32.0,30.19,WSW,250,2.0,4.0,89,0.00,,,0.02,weatherlink.com 1.10,2013-01-06 23:48:00,
2013-01-06 19:03:00,35.2,32.0,30.19,West,263,0.0,2.0,88,0.00,,,0.02,weatherlink.com 1.10,2013-01-07 00:03:00,
2013-01-06 19:18:00,35.0,32.0,30.20,WSW,246,0.0,1.0,89,0.00,,,0.02,weatherlink.com 1.10,2013-01-07 00:18:00,
2013-01-06 19:33:00,35.3,33.0,30.20,WNW,287,0.0,1.0,90,0.00,,,0.02,weatherlink.com 1.10,2013-01-07 00:33:00,
2013-01-06 19:48:00,36.3,33.0,30.20,East,79,0.0,5.0,88,0.00,,,0.02,weatherlink.com 1.10,2013-01-07 00:48:00,
2013-01-06 20:03:00,35.9,33.0,30.20,West,264,2.0,3.0,88,0.00,,,0.02,weatherlink.com 1.10,2013-01-07 01:03:00,
2013-01-06 20:18:00,34.9,32.0,30.20,SW,222,0.0,1.0,90,0.00,,,0.02,weatherlink.com 1.10,2013-01-07 01:18:00,
2013-01-06 20:33:00,35.3,33.0,30.21,South,186,1.0,2.0,90,0.00,,,0.02,weatherlink.com 1.10,2013-01-07 01:33:00,
2013-01-06 20:48:00,36.5,33.0,30.22,West,270,1.0,4.0,88,0.00,,,0.02,weatherlink.com 1.10,2013-01-07 01:48:00,
2013-01-06 21:03:00,36.9,33.0,30.21,North,4,4.0,4.0,87,0.00,,,0.02,weatherlink.com 1.10,2013-01-07 02:03:00,
2013-01-06 21:18:00,37.3,33.0,30.23,West,263,1.0,4.0,85,0.00,,,0.02,weatherlink.com 1.10,2013-01-07 02:18:00,
2013-01-06 21:33:00,37.1,33.0,30.23,WNW,290,1.0,7.0,85,0.00,,,0.02,weatherlink.com 1.10,2013-01-07 02:33:00,
2013-01-06 21:48:00,37.3,33.0,30.23,NW,324,1.0,4.0,85,0.00,,,0.02,weatherlink.com 1.10,2013-01-07 02:48:00,
2013-01-06 22:03:00,37.3,33.0,30.23,WNW,298,2.0,5.0,84,0.00,,,0.02,weatherlink.com 1.10,2013-01-07 03:03:00,
2013-01-06 22:18:00,37.3,33.0,30.24,NNW,335,0.0,4.0,84,0.00,,,0.02,weatherlink.com 1.10,2013-01-07 03:18:00,
2013-01-06 22:33:00,37.1,33.0,30.25,NW,319,0.0,2.0,84,0.00,,,0.02,weatherlink.com 1.10,2013-01-07 03:33:00,
2013-01-06 22:48:00,36.7,32.0,30.25,NW,321,0.0,4.0,83,0.00,,,0.02,weatherlink.com 1.10,2013-01-07 03:48:00,
2013-01-06 23:03:00,36.1,32.0,30.26,WNW,288,0.0,4.0,84,0.00,,,0.02,weatherlink.com 1.10,2013-01-07 04:03:00,
2013-01-06 23:18:00,35.6,31.0,30.26,North,349,0.0,4.0,84,0.00,,,0.02,weatherlink.com 1.10,2013-01-07 04:18:00,
2013-01-06 23:33:00,35.4,30.0,30.27,NW,313,0.0,4.0,82,0.00,,,0.02,weatherlink.com 1.10,2013-01-07 04:33:00,
2013-01-06 23:48:00,35.2,31.0,30.26,NW,314,2.0,3.0,83,0.00,,,0.02,weatherlink.com 1.10,2013-01-07 04:48:00,